When you browse on this site, cookies collect data to enhance your experience and personalize the content and advertising you see.
Visit our Privacy Policy to learn more. By continuing to use the site, you agree to this use of cookies and data.
  • In Switzerland
  • List of Countries
  • For 7 days
  • Water Temperature
  • Weather Map
  • Weather Widgets
  • user-avatar
    Login

    Hourly Weather Thimphu

    Today, 14 December, Saturday

    Time Temperature Precipitation Wind Pressure Humidity
    00:00 -2°C° 0 mm 0 mps 521 mmHg 97%
    01:00 -2°C° 0.3 mm 0 mps 521 mmHg 97%
    02:00 -2°C° 0.3 mm 0 mps 521 mmHg 97%
    03:00 -2°C° 0.3 mm 0 mps 521 mmHg 97%
    04:00 -2°C° 0.9 mm 0 mps 521 mmHg 97%
    05:00 -2°C° 0.9 mm 0 mps 521 mmHg 97%
    06:00 0°C° 0 mm 1 mps 521 mmHg 95%
    07:00 +1°C° 0.4 mm 1 mps 522 mmHg 93%
    08:00 +1°C° 0.4 mm 1 mps 523 mmHg 91%
    09:00 +2°C° 0.4 mm 1 mps 523 mmHg 89%
    10:00 +3°C° 0.3 mm 1 mps 523 mmHg 88%
    11:00 +2°C° 0.3 mm 2 mps 523 mmHg 87%
    12:00 +3°C° 0.3 mm 2 mps 523 mmHg 86%
    13:00 +3°C° 0.4 mm 2 mps 522 mmHg 88%
    14:00 +2°C° 0.4 mm 2 mps 522 mmHg 89%
    15:00 +2°C° 0.4 mm 2 mps 521 mmHg 90%
    16:00 +2°C° 0.2 mm 1 mps 521 mmHg 92%
    17:00 +2°C° 0.2 mm 1 mps 521 mmHg 95%
    18:00 0°C° 0.2 mm 0 mps 520 mmHg 97%
    19:00 0°C° 0.1 mm 1 mps 520 mmHg 96%
    20:00 0°C° 0.1 mm 1 mps 520 mmHg 95%
    21:00 -1°C° 0.1 mm 1 mps 520 mmHg 94%
    22:00 -2°C° 0 mm 1 mps 520 mmHg 92%
    23:00 -2°C° 0 mm 1 mps 520 mmHg 90%

    Tomorrow, 15 December, Sunday

    Time Temperature Precipitation Wind Pressure Humidity
    00:00 -2°C° 0 mm 1 mps 519 mmHg 87%
    01:00 -3°C° 0 mm 1 mps 519 mmHg 86%
    02:00 -5°C° 0 mm 2 mps 519 mmHg 84%
    03:00 -5°C° 0 mm 2 mps 519 mmHg 82%
    04:00 -5°C° 0 mm 2 mps 519 mmHg 80%
    05:00 -5°C° 0 mm 2 mps 519 mmHg 79%
    06:00 -6°C° 0 mm 2 mps 519 mmHg 78%
    07:00 -1°C° 0 mm 1 mps 521 mmHg 71%
    08:00 +1°C° 0 mm 1 mps 522 mmHg 64%
    09:00 +4°C° 0 mm 1 mps 524 mmHg 57%
    10:00 +5°C° 0 mm 1 mps 525 mmHg 52%
    11:00 +5°C° 0 mm 2 mps 525 mmHg 47%
    12:00 +7°C° 0 mm 2 mps 525 mmHg 42%
    13:00 +6°C° 0.1 mm 2 mps 524 mmHg 45%
    14:00 +6°C° 0.1 mm 2 mps 524 mmHg 48%
    15:00 +6°C° 0.1 mm 2 mps 523 mmHg 52%
    16:00 +3°C° 0.2 mm 2 mps 521 mmHg 65%
    17:00 +2°C° 0.2 mm 1 mps 520 mmHg 79%
    18:00 -1°C° 0.2 mm 1 mps 518 mmHg 92%
    19:00 -1°C° 0 mm 1 mps 519 mmHg 89%
    20:00 -2°C° 0 mm 1 mps 519 mmHg 86%
    21:00 -2°C° 0 mm 1 mps 519 mmHg 83%
    22:00 -3°C° 0 mm 1 mps 519 mmHg 83%
    23:00 -3°C° 0 mm 1 mps 518 mmHg 83%

    Day after tomorrow, 16 December, Monday

    Time Temperature Precipitation Wind Pressure Humidity
    00:00 -3°C° 0 mm 1 mps 518 mmHg 82%
    01:00 -3°C° 0 mm 1 mps 518 mmHg 81%
    02:00 -5°C° 0 mm 2 mps 518 mmHg 80%
    03:00 -6°C° 0 mm 2 mps 518 mmHg 79%
    04:00 -6°C° 0 mm 2 mps 517 mmHg 76%
    05:00 -6°C° 0 mm 2 mps 517 mmHg 73%
    06:00 -6°C° 0 mm 2 mps 517 mmHg 70%
    07:00 -2°C° 0 mm 1 mps 519 mmHg 61%
    08:00 +1°C° 0 mm 1 mps 521 mmHg 51%
    09:00 +3°C° 0 mm 0 mps 523 mmHg 41%
    10:00 +5°C° 0 mm 1 mps 524 mmHg 39%
    11:00 +5°C° 0 mm 2 mps 524 mmHg 37%
    12:00 +6°C° 0 mm 2 mps 524 mmHg 35%
    13:00 +6°C° 0 mm 2 mps 524 mmHg 41%
    14:00 +5°C° 0 mm 2 mps 523 mmHg 46%
    15:00 +5°C° 0 mm 2 mps 522 mmHg 52%
    16:00 +2°C° 0.1 mm 2 mps 521 mmHg 66%
    17:00 +1°C° 0.1 mm 1 mps 520 mmHg 80%
    18:00 -2°C° 0.1 mm 1 mps 519 mmHg 94%
    19:00 -2°C° 0.1 mm 1 mps 519 mmHg 93%
    20:00 -2°C° 0.1 mm 1 mps 519 mmHg 92%
    21:00 -3°C° 0.1 mm 1 mps 519 mmHg 90%
    22:00 -3°C° 0 mm 1 mps 519 mmHg 89%
    23:00 -3°C° 0 mm 1 mps 519 mmHg 88%

    17 December, Tuesday

    Time Temperature Precipitation Wind Pressure Humidity
    00:00 -4°C° 0 mm 1 mps 518 mmHg 87%
    01:00 -4°C° 0 mm 1 mps 518 mmHg 85%
    02:00 -4°C° 0 mm 1 mps 518 mmHg 82%
    03:00 -6°C° 0 mm 2 mps 517 mmHg 79%
    04:00 -7°C° 0 mm 2 mps 517 mmHg 76%
    05:00 -7°C° 0 mm 2 mps 517 mmHg 74%
    06:00 -7°C° 0 mm 2 mps 517 mmHg 71%
    07:00 -3°C° 0 mm 1 mps 519 mmHg 63%
    08:00 0°C° 0 mm 1 mps 521 mmHg 55%
    09:00 +2°C° 0 mm 1 mps 523 mmHg 46%
    10:00 +3°C° 0 mm 1 mps 523 mmHg 44%
    11:00 +5°C° 0 mm 1 mps 523 mmHg 41%
    12:00 +5°C° 0 mm 2 mps 524 mmHg 38%
    13:00 +4°C° 0.1 mm 2 mps 523 mmHg 44%
    14:00 +4°C° 0.1 mm 2 mps 522 mmHg 50%
    15:00 +4°C° 0.1 mm 2 mps 522 mmHg 56%
    16:00 +2°C° 0 mm 1 mps 520 mmHg 68%
    17:00 0°C° 0 mm 1 mps 519 mmHg 80%
    18:00 -2°C° 0 mm 1 mps 518 mmHg 91%
    19:00 -2°C° 0 mm 1 mps 518 mmHg 87%
    20:00 -2°C° 0 mm 1 mps 518 mmHg 82%
    21:00 -2°C° 0 mm 1 mps 519 mmHg 78%
    22:00 -3°C° 0 mm 1 mps 518 mmHg 76%
    23:00 -3°C° 0 mm 1 mps 518 mmHg 74%

    18 December, Wednesday

    Time Temperature Precipitation Wind Pressure Humidity
    00:00 -4°C° 0 mm 1 mps 517 mmHg 72%
    01:00 -4°C° 0 mm 1 mps 517 mmHg 70%
    02:00 -4°C° 0 mm 1 mps 517 mmHg 67%
    03:00 -4°C° 0 mm 1 mps 517 mmHg 65%
    04:00 -4°C° 0 mm 1 mps 517 mmHg 62%
    05:00 -4°C° 0 mm 1 mps 517 mmHg 59%
    06:00 -6°C° 0 mm 2 mps 517 mmHg 56%
    07:00 -1°C° 0 mm 1 mps 519 mmHg 51%
    08:00 +1°C° 0 mm 1 mps 521 mmHg 45%
    09:00 +4°C° 0 mm 1 mps 523 mmHg 39%
    10:00 +5°C° 0 mm 1 mps 523 mmHg 38%
    11:00 +7°C° 0 mm 1 mps 524 mmHg 38%
    12:00 +7°C° 0 mm 2 mps 524 mmHg 38%
    13:00 +6°C° 0 mm 2 mps 523 mmHg 44%
    14:00 +6°C° 0 mm 2 mps 523 mmHg 50%
    15:00 +5°C° 0 mm 2 mps 522 mmHg 56%
    16:00 +3°C° 0 mm 2 mps 520 mmHg 68%
    17:00 +2°C° 0 mm 1 mps 519 mmHg 80%
    18:00 -1°C° 0 mm 1 mps 518 mmHg 92%
    19:00 -1°C° 0 mm 1 mps 518 mmHg 90%
    20:00 -1°C° 0 mm 1 mps 519 mmHg 87%
    21:00 -1°C° 0 mm 1 mps 519 mmHg 84%
    22:00 -1°C° 0 mm 1 mps 519 mmHg 83%
    23:00 -1°C° 0 mm 1 mps 518 mmHg 82%

    19 December, Thursday

    Time Temperature Precipitation Wind Pressure Humidity
    00:00 -1°C° 0 mm 1 mps 518 mmHg 81%
    01:00 -2°C° 0 mm 1 mps 517 mmHg 81%
    02:00 -2°C° 0 mm 1 mps 517 mmHg 82%
    03:00 -3°C° 0 mm 1 mps 516 mmHg 82%
    04:00 -3°C° 0 mm 1 mps 516 mmHg 82%
    05:00 -3°C° 0 mm 1 mps 516 mmHg 82%
    06:00 -3°C° 0 mm 1 mps 516 mmHg 82%
    07:00 -1°C° 0 mm 1 mps 518 mmHg 73%
    08:00 +1°C° 0 mm 1 mps 519 mmHg 64%
    09:00 +4°C° 0 mm 1 mps 521 mmHg 55%
    10:00 +5°C° 0 mm 1 mps 522 mmHg 53%
    11:00 +5°C° 0 mm 2 mps 522 mmHg 51%
    12:00 +6°C° 0 mm 2 mps 522 mmHg 49%
    13:00 +6°C° 0 mm 2 mps 521 mmHg 54%
    14:00 +5°C° 0 mm 2 mps 521 mmHg 59%
    15:00 +5°C° 0 mm 2 mps 520 mmHg 63%
    16:00 +4°C° 0 mm 1 mps 519 mmHg 74%
    17:00 +2°C° 0 mm 1 mps 518 mmHg 85%
    18:00 -1°C° 0 mm 0 mps 517 mmHg 96%
    19:00 -1°C° 0 mm 0 mps 518 mmHg 95%
    20:00 -1°C° 0 mm 0 mps 518 mmHg 94%
    21:00 -1°C° 0 mm 0 mps 518 mmHg 94%
    22:00 -1°C° 0 mm 0 mps 518 mmHg 93%
    23:00 -1°C° 0 mm 0 mps 518 mmHg 92%
    Show more